QPF
0.08 0.08 0.06 0.07 0.08 0.08 0.11 0.09 0.06 0.06 0.05 0.04 0.05 0.06 0.06 0.07 0.08 0.08 0.06 0.03 0.03 0.02 0.02 0.02 0.02 0.03 0.05 0.06 0.06 0.06 0.05 0.05 0.07 0.08 0.07 0.05 0.04 0.04 0.04 0.03 0.03 0.03 0.03
0.07 0.07 0.06 0.06 0.07 0.08 0.07 0.06 0.05 0.06 0.05 0.04 0.04 0.04 0.05 0.05 0.04 0.04 0.05 0.05 0.04 0.02 0.01 0.01 0.02 0.03 0.04 0.05 0.05 0.05 0.04 0.03 0.03 0.03 0.04 0.05 0.06 0.05 0.04 0.04 0.05 0.05 0.03
0.07 0.07 0.06 0.06 0.05 0.06 0.06 0.06 0.07 0.07 0.05 0.06 0.06 0.08 0.08 0.06 0.05 0.03 0.05 0.09 0.07 0.04 0.03 0.03 0.04 0.04 0.05 0.04 0.04 0.04 0.03 0.03 0.03 0.02 0.02 0.03 0.05 0.05 0.04 0.04 0.05 0.06 0.05
0.07 0.08 0.06 0.05 0.06 0.05 0.06 0.07 0.07 0.09 0.08 0.07 0.07 0.08 0.08 0.07 0.06 0.07 0.06 0.08 0.09 0.06 0.04 0.03 0.05 0.05 0.04 0.03 0.03 0.04 0.03 0.03 0.03 0.03 0.03 0.03 0.03 0.04 0.04 0.04 0.04 0.04 0.05
0.05 0.07 0.07 0.07 0.06 0.05 0.07 0.07 0.09 0.09 0.08 0.08 0.08 0.09 0.11 0.10 0.06 0.05 0.04 0.06 0.07 0.07 0.07 0.07 0.06 0.06 0.04 0.03 0.03 0.04 0.04 0.03 0.03 0.02 0.03 0.02 0.03 0.03 0.03 0.03 0.04 0.04 0.05
0.04 0.06 0.08 0.07 0.05 0.06 0.07 0.08 0.11 0.11 0.09 0.08 0.06 0.09 0.09 0.07 0.05 0.04 0.04 0.06 0.06 0.06 0.06 0.07 0.06 0.05 0.03 0.02 0.03 0.04 0.06 0.07 0.05 0.03 0.02 0.03 0.03 0.02 0.03 0.04 0.05 0.06 0.06
0.03 0.05 0.06 0.07 0.07 0.07 0.06 0.07 0.10 0.11 0.10 0.09 0.08 0.08 0.07 0.06 0.06 0.06 0.04 0.06 0.07 0.09 0.10 0.06 0.05 0.06 0.06 0.03 0.03 0.04 0.05 0.06 0.04 0.03 0.02 0.03 0.04 0.05 0.04 0.04 0.05 0.06 0.05
0.03 0.04 0.07 0.08 0.08 0.08 0.07 0.08 0.09 0.08 0.08 0.09 0.10 0.12 0.10 0.10 0.09 0.06 0.06 0.05 0.05 0.05 0.06 0.07 0.05 0.07 0.07 0.06 0.03 0.02 0.03 0.03 0.04 0.03 0.02 0.03 0.04 0.03 0.03 0.02 0.03 0.04 0.04
0.03 0.02 0.04 0.06 0.08 0.08 0.09 0.08 0.08 0.08 0.10 0.10 0.10 0.12 0.12 0.12 0.11 0.08 0.06 0.05 0.05 0.03 0.03 0.05 0.05 0.04 0.06 0.08 0.07 0.05 0.03 0.02 0.03 0.03 0.01 0.01 0.02 0.02 0.02 0.03 0.02 0.02 0.03
0.03 0.02 0.03 0.05 0.07 0.07 0.07 0.06 0.07 0.09 0.10 0.12 0.10 0.09 0.10 0.14 0.15 0.12 0.09 0.06 0.05 0.05 0.04 0.04 0.05 0.04 0.05 0.08 0.08 0.06 0.04 0.02 0.03 0.03 0.02 0.02 0.01 0.01 0.02 0.02 0.02 0.03 0.03
0.03 0.02 0.03 0.04 0.06 0.05 0.06 0.06 0.07 0.07 0.07 0.09 0.11 0.10 0.11 0.13 0.13 0.12 0.10 0.07 0.06 0.04 0.04 0.05 0.05 0.06 0.08 0.08 0.11 0.10 0.06 0.03 0.02 0.02 0.03 0.03 0.02 0.01 0.01 0.01 0.01 0.03 0.03
0.04 0.03 0.04 0.04 0.05 0.05 0.05 0.06 0.07 0.07 0.07 0.07 0.07 0.08 0.11 0.12 0.12 0.11 0.09 0.09 0.07 0.05 0.05 0.05 0.05 0.05 0.08 0.09 0.14 0.17 0.11 0.06 0.04 0.02 0.02 0.02 0.02 0.02 0.02 0.01 0.02 0.02 0.03
0.04 0.03 0.03 0.04 0.04 0.05 0.05 0.06 0.06 0.06 0.06 0.07 0.06 0.05 0.08 0.09 0.09 0.10 0.08 0.07 0.05 0.05 0.05 0.04 0.04 0.05 0.06 0.07 0.08 0.07 0.09 0.09 0.06 0.03 0.02 0.02 0.02 0.02 0.02 0.02 0.02 0.03 0.03
0.03 0.02 0.03 0.04 0.04 0.04 0.04 0.06 0.05 0.05 0.06 0.06 0.07 0.09 0.09 0.08 0.08 0.10 0.10 0.09 0.07 0.06 0.06 0.05 0.05 0.05 0.05 0.05 0.07 0.05 0.05 0.07 0.09 0.06 0.04 0.02 0.02 0.02 0.03 0.02 0.02 0.03 0.03
0.02 0.03 0.03 0.03 0.03 0.03 0.04 0.06 0.05 0.05 0.06 0.06 0.06 0.08 0.09 0.08 0.08 0.07 0.07 0.07 0.08 0.08 0.07 0.06 0.05 0.04 0.04 0.05 0.04 0.04 0.04 0.04 0.06 0.06 0.04 0.03 0.02 0.02 0.01 0.01 0.01 0.01 0.01
0.02 0.03 0.03 0.03 0.03 0.03 0.03 0.04 0.04 0.04 0.05 0.05 0.05 0.04 0.05 0.04 0.05 0.05 0.04 0.04 0.05 0.06 0.06 0.06 0.05 0.04 0.03 0.03 0.03 0.04 0.05 0.04 0.03 0.04 0.04 0.04 0.03 0.02 0.01 0.02 0.01 0.01 0.01
0.05 0.04 0.04 0.04 0.04 0.04 0.04 0.04 0.04 0.04 0.03 0.03 0.03 0.04 0.05 0.06 0.08 0.08 0.08 0.06 0.05 0.05 0.05 0.06 0.05 0.05 0.05 0.05 0.05 0.04 0.05 0.04 0.02 0.02 0.03 0.03 0.03 0.03 0.02 0.01 0.01 0.01 0.01
0.04 0.04 0.03 0.04 0.05 0.05 0.05 0.04 0.04 0.04 0.03 0.03 0.04 0.04 0.04 0.07 0.10 0.10 0.10 0.08 0.07 0.06 0.05 0.05 0.04 0.05 0.05 0.04 0.04 0.03 0.03 0.03 0.03 0.03 0.03 0.03 0.03 0.03 0.02 0.01 0.01 0.01 0.01
0.04 0.03 0.03 0.03 0.04 0.05 0.05 0.04 0.03 0.03 0.03 0.03 0.03 0.03 0.03 0.05 0.05 0.05 0.06 0.06 0.06 0.06 0.06 0.04 0.03 0.03 0.04 0.03 0.04 0.03 0.03 0.03 0.03 0.03 0.04 0.04 0.04 0.03 0.02 0.01 0.01 0.01 0.01
0.04 0.03 0.03 0.03 0.02 0.02 0.03 0.02 0.02 0.03 0.02 0.02 0.03 0.03 0.04 0.04 0.04 0.05 0.05 0.07 0.07 0.08 0.07 0.06 0.05 0.04 0.04 0.04 0.04 0.03 0.03 0.03 0.03 0.03 0.03 0.03 0.03 0.03 0.02 0.02 0.01 0.01 0.01
0.03 0.04 0.05 0.04 0.02 0.02 0.02 0.01 0.01 0.02 0.02 0.02 0.03 0.03 0.03 0.02 0.03 0.03 0.03 0.06 0.07 0.07 0.07 0.07 0.07 0.07 0.06 0.06 0.04 0.03 0.03 0.03 0.04 0.05 0.04 0.03 0.03 0.02 0.02 0.01 0.01 0.01 0.00
0.04 0.05 0.06 0.07 0.06 0.05 0.05 0.04 0.03 0.02 0.02 0.02 0.03 0.03 0.02 0.01 0.02 0.02 0.01 0.02 0.03 0.04 0.06 0.09 0.10 0.11 0.11 0.10 0.09 0.08 0.07 0.06 0.05 0.04 0.05 0.04 0.05 0.05 0.03 0.02 0.02 0.02 0.01
0.03 0.03 0.03 0.03 0.04 0.05 0.04 0.04 0.04 0.04 0.05 0.05 0.04 0.02 0.01 0.01 0.01 0.01 0.02 0.02 0.03 0.04 0.06 0.07 0.08 0.08 0.09 0.09 0.09 0.09 0.09 0.09 0.07 0.07 0.07 0.05 0.04 0.07 0.08 0.06 0.04 0.02 0.02
0.03 0.04 0.03 0.02 0.02 0.03 0.02 0.02 0.02 0.02 0.02 0.03 0.03 0.02 0.02 0.01 0.01 0.01 0.02 0.02 0.04 0.05 0.05 0.04 0.05 0.05 0.05 0.05 0.05 0.05 0.06 0.06 0.05 0.06 0.07 0.06 0.05 0.05 0.05 0.09 0.10 0.07 0.03
0.03 0.03 0.02 0.02 0.02 0.02 0.01 0.01 0.01 0.01 0.02 0.02 0.02 0.02 0.02 0.02 0.02 0.02 0.02 0.03 0.04 0.04 0.03 0.04 0.03 0.02 0.01 0.01 0.02 0.03 0.03 0.03 0.03 0.03 0.05 0.05 0.05 0.05 0.04 0.04 0.07 0.10 0.07
0.05 0.04 0.03 0.03 0.02 0.03 0.02 0.01 0.01 0.01 0.02 0.02 0.02 0.02 0.03 0.03 0.03 0.03 0.03 0.03 0.03 0.04 0.02 0.02 0.02 0.01 0.01 0.01 0.01 0.02 0.03 0.03 0.03 0.03 0.04 0.07 0.06 0.05 0.06 0.04 0.03 0.05 0.07
MSLP
1009.77 1009.66 1009.49 1009.27 1009.07 1008.92 1008.84 1008.84 1008.91 1009.00 1009.10 1009.17 1009.20 1009.19 1009.17 1009.16 1009.21 1009.34 1009.55 1009.85 1010.21 1010.60 1010.98 1011.33 1011.62 1011.85 1012.04 1012.21 1012.36 1012.54 1012.74 1012.98 1013.25 1013.55 1013.87 1014.19 1014.50 1014.79 1015.05 1015.29 1015.49 1015.68 1015.86
1009.74 1009.65 1009.50 1009.31 1009.13 1008.98 1008.87 1008.83 1008.83 1008.86 1008.90 1008.91 1008.90 1008.86 1008.82 1008.78 1008.79 1008.88 1009.04 1009.29 1009.60 1009.96 1010.33 1010.69 1011.02 1011.31 1011.55 1011.76 1011.96 1012.15 1012.35 1012.59 1012.84 1013.13 1013.43 1013.74 1014.04 1014.33 1014.59 1014.83 1015.03 1015.22 1015.40
1009.67 1009.59 1009.48 1009.34 1009.19 1009.06 1008.96 1008.88 1008.84 1008.81 1008.79 1008.75 1008.68 1008.60 1008.50 1008.41 1008.35 1008.36 1008.43 1008.59 1008.83 1009.14 1009.49 1009.86 1010.23 1010.57 1010.89 1011.17 1011.43 1011.66 1011.88 1012.11 1012.36 1012.62 1012.90 1013.18 1013.47 1013.75 1014.02 1014.26 1014.48 1014.68 1014.87
1009.51 1009.45 1009.39 1009.31 1009.22 1009.14 1009.05 1008.98 1008.91 1008.83 1008.76 1008.66 1008.55 1008.40 1008.24 1008.07 1007.93 1007.82 1007.78 1007.83 1007.96 1008.18 1008.48 1008.84 1009.23 1009.63 1010.02 1010.39 1010.71 1011.00 1011.27 1011.51 1011.75 1011.99 1012.24 1012.51 1012.78 1013.05 1013.31 1013.57 1013.81 1014.04 1014.27
1009.24 1009.21 1009.20 1009.19 1009.18 1009.16 1009.11 1009.06 1008.98 1008.89 1008.78 1008.64 1008.47 1008.28 1008.05 1007.80 1007.56 1007.33 1007.16 1007.07 1007.07 1007.18 1007.40 1007.71 1008.10 1008.53 1008.98 1009.41 1009.81 1010.16 1010.47 1010.74 1010.99 1011.22 1011.46 1011.70 1011.96 1012.23 1012.50 1012.77 1013.04 1013.31 1013.58
1008.88 1008.88 1008.92 1008.98 1009.05 1009.09 1009.10 1009.07 1009.01 1008.92 1008.79 1008.64 1008.44 1008.21 1007.94 1007.63 1007.29 1006.96 1006.66 1006.42 1006.27 1006.25 1006.36 1006.60 1006.94 1007.37 1007.84 1008.31 1008.76 1009.17 1009.52 1009.83 1010.09 1010.33 1010.57 1010.81 1011.06 1011.32 1011.59 1011.88 1012.17 1012.47 1012.77
1008.46 1008.47 1008.55 1008.67 1008.80 1008.90 1008.97 1008.98 1008.95 1008.87 1008.75 1008.60 1008.41 1008.18 1007.89 1007.55 1007.16 1006.75 1006.34 1005.97 1005.69 1005.52 1005.50 1005.62 1005.88 1006.26 1006.71 1007.18 1007.66 1008.10 1008.49 1008.83 1009.12 1009.39 1009.63 1009.87 1010.12 1010.38 1010.66 1010.95 1011.24 1011.55 1011.87
1008.02 1008.03 1008.13 1008.28 1008.45 1008.60 1008.70 1008.74 1008.73 1008.68 1008.60 1008.48 1008.33 1008.13 1007.87 1007.54 1007.15 1006.69 1006.22 1005.75 1005.35 1005.05 1004.89 1004.88 1005.03 1005.31 1005.68 1006.12 1006.58 1007.03 1007.45 1007.82 1008.15 1008.44 1008.71 1008.97 1009.23 1009.48 1009.75 1010.02 1010.31 1010.60 1010.91
1007.61 1007.60 1007.69 1007.84 1008.01 1008.16 1008.27 1008.33 1008.35 1008.32 1008.27 1008.21 1008.12 1007.98 1007.79 1007.53 1007.18 1006.74 1006.25 1005.74 1005.25 1004.84 1004.55 1004.40 1004.41 1004.56 1004.84 1005.20 1005.61 1006.04 1006.46 1006.86 1007.22 1007.55 1007.86 1008.14 1008.41 1008.67 1008.92 1009.17 1009.42 1009.67 1009.94
1007.26 1007.22 1007.27 1007.38 1007.52 1007.64 1007.72 1007.77 1007.78 1007.77 1007.76 1007.74 1007.72 1007.68 1007.58 1007.41 1007.14 1006.77 1006.31 1005.80 1005.28 1004.79 1004.39 1004.12 1003.98 1004.00 1004.15 1004.40 1004.74 1005.13 1005.54 1005.95 1006.35 1006.74 1007.09 1007.42 1007.71 1007.97 1008.21 1008.42 1008.62 1008.82 1009.02
1007.00 1006.91 1006.90 1006.94 1007.00 1007.05 1007.08 1007.08 1007.07 1007.05 1007.06 1007.09 1007.13 1007.17 1007.17 1007.10 1006.93 1006.65 1006.26 1005.78 1005.26 1004.74 1004.26 1003.88 1003.63 1003.51 1003.53 1003.68 1003.93 1004.27 1004.67 1005.09 1005.53 1005.96 1006.38 1006.75 1007.09 1007.37 1007.60 1007.79 1007.94 1008.07 1008.21
1006.85 1006.70 1006.61 1006.55 1006.52 1006.47 1006.42 1006.35 1006.29 1006.24 1006.24 1006.29 1006.37 1006.46 1006.53 1006.55 1006.47 1006.27 1005.96 1005.54 1005.04 1004.51 1004.00 1003.55 1003.19 1002.97 1002.88 1002.93 1003.11 1003.39 1003.77 1004.21 1004.69 1005.19 1005.67 1006.11 1006.50 1006.82 1007.06 1007.24 1007.36 1007.45 1007.53
1006.79 1006.59 1006.41 1006.26 1006.12 1005.98 1005.83 1005.67 1005.54 1005.45 1005.41 1005.44 1005.51 1005.62 1005.72 1005.78 1005.75 1005.62 1005.36 1004.98 1004.52 1004.00 1003.47 1002.98 1002.57 1002.27 1002.10 1002.07 1002.19 1002.43 1002.80 1003.26 1003.79 1004.34 1004.90 1005.42 1005.87 1006.25 1006.54 1006.74 1006.86 1006.93 1006.98
1006.85 1006.59 1006.35 1006.11 1005.87 1005.63 1005.39 1005.16 1004.96 1004.80 1004.71 1004.68 1004.71 1004.78 1004.85 1004.89 1004.86 1004.73 1004.49 1004.14 1003.69 1003.19 1002.66 1002.15 1001.71 1001.36 1001.14 1001.07 1001.15 1001.38 1001.74 1002.22 1002.79 1003.41 1004.03 1004.63 1005.17 1005.63 1005.98 1006.23 1006.38 1006.47 1006.53
1007.01 1006.72 1006.42 1006.12 1005.82 1005.51 1005.20 1004.91 1004.64 1004.42 1004.25 1004.15 1004.10 1004.09 1004.08 1004.04 1003.95 1003.77 1003.49 1003.12 1002.66 1002.15 1001.62 1001.11 1000.66 1000.30 1000.07 999.98 1000.04 1000.27 1000.64 1001.14 1001.74 1002.41 1003.10 1003.77 1004.39 1004.92 1005.35 1005.67 1005.89 1006.04 1006.14
1007.27 1006.97 1006.66 1006.33 1005.99 1005.65 1005.31 1004.98 1004.67 1004.39 1004.16 1003.98 1003.83 1003.70 1003.57 1003.41 1003.19 1002.91 1002.55 1002.11 1001.61 1001.07 1000.53 1000.02 999.58 999.23 999.01 998.92 998.99 999.22 999.60 1000.11 1000.73 1001.42 1002.15 1002.87 1003.54 1004.14 1004.65 1005.05 1005.35 1005.58 1005.75
1007.64 1007.35 1007.04 1006.71 1006.38 1006.04 1005.70 1005.37 1005.05 1004.75 1004.47 1004.21 1003.96 1003.72 1003.45 1003.14 1002.78 1002.36 1001.87 1001.33 1000.76 1000.18 999.61 999.10 998.67 998.34 998.14 998.08 998.17 998.41 998.78 999.29 999.90 1000.58 1001.30 1002.03 1002.72 1003.35 1003.91 1004.38 1004.76 1005.06 1005.31
1008.08 1007.81 1007.52 1007.23 1006.93 1006.62 1006.31 1006.00 1005.70 1005.40 1005.10 1004.80 1004.48 1004.13 1003.74 1003.30 1002.79 1002.23 1001.61 1000.96 1000.30 999.66 999.06 998.54 998.12 997.82 997.65 997.62 997.72 997.96 998.33 998.80 999.37 1000.00 1000.67 1001.35 1002.01 1002.63 1003.19 1003.68 1004.11 1004.48 1004.80
1008.55 1008.31 1008.06 1007.81 1007.55 1007.28 1007.02 1006.76 1006.49 1006.22 1005.93 1005.61 1005.26 1004.85 1004.38 1003.83 1003.21 1002.53 1001.80 1001.05 1000.31 999.61 998.99 998.46 998.05 997.78 997.64 997.63 997.75 997.98 998.32 998.74 999.23 999.77 1000.34 1000.92 1001.49 1002.03 1002.55 1003.02 1003.46 1003.85 1004.22
1009.00 1008.80 1008.58 1008.36 1008.14 1007.92 1007.70 1007.48 1007.26 1007.03 1006.77 1006.47 1006.12 1005.71 1005.21 1004.61 1003.94 1003.19 1002.39 1001.57 1000.78 1000.04 999.40 998.87 998.47 998.22 998.11 998.12 998.25 998.47 998.76 999.11 999.50 999.91 1000.34 1000.77 1001.20 1001.62 1002.03 1002.43 1002.83 1003.21 1003.59
1009.39 1009.21 1009.01 1008.82 1008.62 1008.43 1008.23 1008.05 1007.86 1007.67 1007.45 1007.21 1006.90 1006.52 1006.04 1005.47 1004.80 1004.04 1003.23 1002.40 1001.59 1000.84 1000.19 999.67 999.29 999.07 998.98 999.00 999.13 999.32 999.56 999.83 1000.10 1000.37 1000.63 1000.89 1001.14 1001.40 1001.67 1001.96 1002.27 1002.60 1002.94
1009.68 1009.51 1009.32 1009.13 1008.94 1008.74 1008.55 1008.38 1008.21 1008.04 1007.87 1007.68 1007.44 1007.12 1006.72 1006.22 1005.61 1004.90 1004.13 1003.34 1002.55 1001.83 1001.20 1000.70 1000.34 1000.14 1000.06 1000.10 1000.21 1000.38 1000.56 1000.74 1000.90 1001.02 1001.12 1001.20 1001.27 1001.36 1001.47 1001.62 1001.82 1002.06 1002.35
1009.85 1009.68 1009.50 1009.30 1009.09 1008.87 1008.66 1008.47 1008.29 1008.13 1007.99 1007.84 1007.67 1007.44 1007.14 1006.73 1006.23 1005.62 1004.94 1004.21 1003.49 1002.81 1002.22 1001.75 1001.42 1001.23 1001.17 1001.20 1001.31 1001.44 1001.57 1001.67 1001.73 1001.73 1001.68 1001.60 1001.51 1001.44 1001.40 1001.41 1001.49 1001.63 1001.83
1009.91 1009.75 1009.56 1009.35 1009.12 1008.87 1008.62 1008.38 1008.18 1008.01 1007.87 1007.75 1007.63 1007.48 1007.27 1006.97 1006.58 1006.09 1005.52 1004.89 1004.25 1003.64 1003.10 1002.66 1002.35 1002.17 1002.11 1002.13 1002.22 1002.32 1002.41 1002.45 1002.43 1002.34 1002.19 1001.99 1001.78 1001.58 1001.41 1001.31 1001.28 1001.33 1001.45
1009.89 1009.75 1009.57 1009.35 1009.10 1008.82 1008.53 1008.25 1008.01 1007.80 1007.64 1007.53 1007.43 1007.33 1007.19 1006.99 1006.70 1006.32 1005.85 1005.32 1004.77 1004.22 1003.73 1003.32 1003.03 1002.85 1002.77 1002.78 1002.84 1002.91 1002.96 1002.96 1002.89 1002.75 1002.53 1002.27 1001.99 1001.71 1001.47 1001.28 1001.17 1001.14 1001.18
1009.83 1009.72 1009.57 1009.37 1009.12 1008.83 1008.51 1008.20 1007.91 1007.66 1007.46 1007.32 1007.22 1007.13 1007.03 1006.88 1006.66 1006.36 1005.98 1005.54 1005.06 1004.57 1004.12 1003.73 1003.44 1003.25 1003.15 1003.13 1003.15 1003.19 1003.21 1003.18 1003.09 1002.92 1002.69 1002.41 1002.10 1001.79 1001.52 1001.29 1001.13 1001.04 1001.02
Thickness
5783 5782 5781 5780 5779 5778 5776 5775 5775 5775 5774 5775 5775 5775 5775 5775 5774 5772 5770 5767 5765 5764 5762 5760 5757 5755 5753 5751 5750 5748 5747 5746 5744 5743 5742 5741 5740 5739 5738 5737 5735 5734 5733
5783 5782 5780 5779 5778 5778 5777 5775 5775 5775 5774 5774 5774 5774 5774 5775 5774 5771 5769 5766 5764 5763 5761 5758 5756 5755 5753 5751 5749 5748 5746 5745 5744 5742 5741 5740 5739 5738 5737 5736 5734 5733 5732
5783 5781 5779 5778 5777 5777 5776 5775 5775 5774 5773 5773 5773 5774 5774 5774 5773 5771 5769 5766 5763 5761 5759 5757 5755 5754 5752 5750 5749 5747 5745 5744 5742 5741 5740 5739 5738 5737 5736 5735 5734 5732 5731
5783 5781 5779 5777 5777 5777 5776 5774 5772 5771 5770 5770 5770 5772 5773 5773 5772 5771 5769 5767 5764 5762 5759 5757 5755 5753 5752 5750 5748 5746 5744 5743 5741 5740 5739 5738 5737 5736 5735 5734 5733 5732 5731
5782 5781 5778 5777 5777 5776 5774 5773 5771 5769 5767 5767 5768 5770 5771 5771 5771 5771 5769 5767 5764 5762 5759 5756 5755 5753 5751 5749 5747 5745 5743 5742 5740 5739 5738 5737 5736 5735 5734 5733 5732 5731 5730
5782 5780 5778 5776 5776 5774 5772 5770 5768 5768 5767 5766 5768 5769 5770 5771 5771 5770 5768 5766 5764 5761 5759 5757 5754 5751 5750 5748 5746 5744 5743 5741 5739 5738 5737 5736 5735 5734 5733 5732 5731 5730 5729
5780 5779 5776 5775 5774 5771 5769 5768 5766 5765 5764 5766 5763 5761 5766 5770 5770 5769 5767 5765 5763 5761 5758 5756 5754 5752 5749 5747 5745 5743 5741 5740 5738 5737 5736 5735 5734 5733 5732 5731 5730 5729 5728
5779 5778 5774 5772 5771 5769 5767 5766 5764 5761 5761 5763 5758 5752 5751 5755 5761 5767 5765 5762 5761 5760 5758 5756 5754 5752 5750 5747 5744 5742 5740 5739 5737 5736 5734 5733 5732 5732 5730 5730 5729 5728 5728
5777 5775 5773 5771 5769 5767 5765 5763 5762 5759 5756 5759 5759 5752 5744 5741 5748 5756 5759 5760 5758 5757 5756 5755 5754 5752 5749 5747 5744 5741 5739 5737 5736 5734 5733 5731 5730 5729 5729 5728 5727 5727 5726
5775 5773 5771 5769 5767 5765 5763 5762 5762 5760 5756 5753 5755 5756 5753 5748 5740 5741 5749 5754 5755 5753 5753 5754 5752 5750 5748 5746 5743 5740 5738 5736 5734 5732 5731 5730 5728 5728 5727 5726 5726 5725 5725
5773 5771 5769 5767 5764 5762 5761 5760 5759 5757 5755 5752 5751 5752 5750 5748 5745 5737 5736 5743 5747 5750 5750 5750 5749 5747 5746 5743 5741 5739 5736 5734 5732 5730 5729 5727 5726 5726 5725 5724 5724 5724 5723
5770 5768 5766 5763 5761 5759 5758 5757 5756 5754 5753 5752 5750 5749 5746 5743 5740 5738 5735 5736 5738 5743 5746 5747 5746 5744 5742 5740 5738 5736 5734 5732 5730 5728 5726 5725 5724 5723 5723 5722 5722 5721 5721
5765 5764 5763 5760 5758 5756 5755 5754 5753 5751 5750 5748 5746 5745 5744 5743 5743 5739 5735 5734 5734 5738 5741 5741 5742 5741 5739 5737 5735 5733 5731 5729 5727 5725 5723 5722 5721 5720 5720 5719 5719 5718 5718
5763 5762 5760 5757 5755 5754 5753 5751 5749 5748 5747 5745 5744 5742 5740 5740 5740 5738 5735 5731 5727 5729 5732 5733 5737 5737 5736 5734 5732 5729 5727 5726 5723 5722 5720 5719 5718 5717 5716 5716 5715 5715 5715
5761 5759 5757 5754 5752 5750 5749 5747 5744 5743 5742 5740 5739 5738 5736 5736 5736 5736 5735 5732 5724 5718 5720 5726 5729 5732 5732 5730 5728 5726 5724 5722 5720 5718 5717 5716 5714 5713 5713 5712 5712 5712 5711
5757 5754 5752 5750 5748 5746 5745 5743 5740 5738 5736 5735 5734 5732 5730 5730 5730 5730 5729 5729 5727 5720 5716 5721 5724 5727 5727 5726 5724 5722 5721 5719 5717 5716 5715 5713 5711 5710 5709 5708 5708 5708 5708
5753 5750 5748 5745 5743 5741 5740 5737 5735 5733 5731 5729 5728 5726 5724 5724 5723 5724 5723 5722 5721 5718 5713 5715 5719 5721 5720 5719 5717 5717 5716 5715 5713 5713 5711 5710 5708 5706 5705 5704 5704 5704 5703
5749 5746 5744 5741 5738 5736 5734 5731 5728 5726 5724 5722 5721 5719 5718 5718 5716 5716 5715 5714 5713 5713 5710 5707 5709 5712 5712 5713 5712 5711 5711 5711 5710 5709 5708 5706 5703 5702 5701 5700 5700 5699 5699
5743 5740 5738 5735 5732 5730 5728 5725 5723 5720 5718 5716 5715 5713 5711 5710 5708 5707 5707 5706 5707 5708 5706 5703 5703 5704 5705 5706 5704 5704 5705 5704 5705 5705 5703 5701 5699 5697 5696 5696 5695 5694 5694
5737 5734 5732 5730 5727 5725 5722 5719 5717 5715 5713 5711 5709 5707 5706 5703 5701 5700 5700 5699 5700 5698 5699 5697 5696 5696 5696 5697 5696 5693 5693 5695 5696 5698 5697 5695 5694 5693 5692 5691 5691 5690 5690
5733 5730 5728 5725 5722 5719 5716 5712 5710 5709 5706 5704 5703 5702 5700 5698 5696 5693 5693 5691 5691 5689 5689 5688 5687 5686 5685 5684 5683 5684 5683 5684 5687 5689 5688 5688 5688 5686 5686 5686 5686 5686 5685
5727 5725 5722 5719 5716 5713 5708 5705 5703 5702 5700 5697 5696 5695 5694 5692 5689 5686 5685 5684 5683 5682 5680 5678 5677 5675 5674 5674 5674 5674 5673 5673 5673 5679 5678 5680 5682 5680 5681 5681 5681 5681 5680
5722 5718 5716 5712 5709 5705 5701 5698 5696 5694 5693 5692 5690 5688 5688 5687 5683 5680 5678 5677 5676 5676 5673 5671 5668 5667 5667 5667 5665 5665 5664 5663 5664 5670 5670 5671 5674 5674 5676 5677 5676 5676 5675
5716 5713 5710 5708 5704 5700 5696 5693 5690 5688 5688 5687 5685 5682 5680 5677 5675 5672 5671 5670 5669 5668 5667 5665 5663 5662 5662 5661 5659 5658 5658 5659 5661 5664 5664 5661 5665 5666 5670 5669 5669 5669 5669
5710 5708 5705 5703 5699 5695 5691 5687 5683 5682 5681 5681 5680 5677 5674 5670 5668 5665 5663 5662 5661 5660 5661 5659 5658 5657 5656 5655 5653 5651 5651 5650 5650 5654 5657 5655 5656 5658 5660 5661 5662 5662 5662
5705 5702 5700 5698 5695 5691 5686 5681 5677 5676 5675 5674 5673 5671 5668 5664 5661 5658 5656 5654 5652 5652 5652 5652 5651 5651 5650 5649 5648 5646 5644 5642 5642 5644 5648 5647 5647 5648 5648 5652 5653 5654 5654